Total_Precipitation_Accumulation
0.29 0.03 0.03 0.04 0.04 0.06 0.03 0.00 0.00 0.00 0.02 0.07 0.09 0.14 0.17 0.17 0.23 0.32 0.30 0.31 0.33 0.29 0.30 0.25 0.21 0.11 0.00 0.02 0.02 0.02 0.03 0.03 0.03 0.03 0.04 0.08 0.10 0.08 0.07 0.19 0.11 0.14 0.30
0.25 0.09 0.05 0.05 0.04 0.07 0.11 0.05 0.02 0.02 0.02 0.05 0.10 0.12 0.17 0.21 0.32 0.40 0.39 0.38 0.42 0.33 0.34 0.27 0.23 0.19 0.12 0.12 0.08 0.05 0.05 0.05 0.03 0.03 0.05 0.09 0.20 0.16 0.06 0.11 0.09 0.13 0.17
0.58 0.50 0.39 0.10 0.02 0.03 0.07 0.08 0.06 0.04 0.02 0.05 0.08 0.16 0.27 0.33 0.50 0.51 0.37 0.33 0.55 0.69 0.54 0.40 0.37 0.49 0.45 0.27 0.11 0.07 0.06 0.06 0.04 0.03 0.02 0.17 0.27 0.20 0.13 0.09 0.11 0.15 0.16
1.33 0.88 0.85 0.57 0.09 0.02 0.01 0.02 0.03 0.03 0.02 0.02 0.03 0.07 0.28 0.35 0.33 0.31 0.45 0.41 0.44 0.47 0.59 0.50 0.75 1.15 0.97 0.72 0.34 0.17 0.11 0.05 0.02 0.02 0.06 0.20 0.23 0.17 0.13 0.07 0.12 0.13 0.12
1.15 1.17 1.04 1.10 0.87 0.31 0.13 0.06 0.04 0.03 0.01 0.00 0.01 0.05 0.12 0.12 0.25 0.25 0.45 0.33 0.20 0.19 0.45 0.60 0.71 0.93 0.83 0.98 1.08 0.69 0.31 0.08 0.02 0.03 0.08 0.05 0.14 0.22 0.16 0.10 0.09 0.10 0.06
1.12 1.23 1.41 1.41 0.95 0.56 0.50 0.20 0.07 0.02 0.00 0.00 0.00 0.01 0.07 0.08 0.13 0.18 0.39 0.46 0.51 0.44 0.78 1.16 1.76 1.28 0.72 1.05 1.11 0.71 0.30 0.04 0.01 0.04 0.08 0.06 0.15 0.27 0.20 0.15 0.10 0.08 0.08
1.81 2.28 2.46 1.95 1.73 0.60 0.45 0.36 0.15 0.04 0.01 0.00 0.00 0.00 0.00 0.01 0.03 0.05 0.07 0.20 0.53 1.18 1.33 1.12 1.24 1.41 0.98 0.29 0.15 0.21 0.14 0.05 0.07 0.13 0.14 0.10 0.15 0.22 0.21 0.20 0.17 0.11 0.09
3.36 3.33 4.25 3.48 3.37 2.66 1.29 0.48 0.23 0.14 0.07 0.02 0.00 0.00 0.00 0.00 0.00 0.01 0.02 0.04 0.07 0.10 0.15 0.16 0.14 0.11 0.16 0.09 0.03 0.03 0.04 0.05 0.05 0.16 0.17 0.16 0.15 0.13 0.12 0.15 0.12 0.09 0.10
5.85 5.84 5.12 5.60 3.30 2.66 2.47 0.84 0.37 0.22 0.15 0.10 0.03 0.01 0.01 0.01 0.00 0.01 0.00 0.00 0.00 0.03 0.06 0.09 0.08 0.02 0.01 0.01 0.01 0.01 0.01 0.01 0.05 0.08 0.07 0.06 0.09 0.13 0.20 0.21 0.16 0.14 0.09
6.57 9.34 6.71 6.50 4.40 2.78 2.29 1.77 0.48 0.30 0.23 0.15 0.10 0.05 0.01 0.00 0.00 0.01 0.01 0.01 0.01 0.03 0.05 0.07 0.08 0.03 0.02 0.00 0.00 0.00 0.00 0.00 0.00 0.00 0.00 0.01 0.04 0.08 0.20 0.30 0.27 0.24 0.18
3.69 5.27 5.82 7.28 6.03 3.32 2.00 2.08 0.98 0.66 0.35 0.22 0.20 0.14 0.02 0.02 0.00 0.00 0.02 0.03 0.04 0.03 0.04 0.06 0.09 0.05 0.01 0.00 0.00 0.00 0.00 0.00 0.00 0.00 0.00 0.00 0.02 0.07 0.14 0.20 0.24 0.25 0.24
2.08 2.39 3.31 5.34 6.91 4.31 2.75 1.70 1.17 0.90 0.57 0.34 0.22 0.16 0.03 0.03 0.01 0.01 0.02 0.04 0.07 0.06 0.06 0.13 0.15 0.08 0.04 0.04 0.02 0.00 0.00 0.00 0.00 0.00 0.01 0.00 0.02 0.03 0.11 0.16 0.17 0.16 0.16
1.35 1.40 1.46 2.46 4.20 3.65 3.01 2.36 1.52 0.95 0.61 0.40 0.22 0.19 0.06 0.01 0.04 0.06 0.11 0.16 0.12 0.12 0.18 0.18 0.37 0.41 0.34 0.20 0.11 0.09 0.03 0.00 0.00 0.00 0.00 0.00 0.02 0.03 0.11 0.17 0.18 0.20 0.22
1.21 1.13 1.07 0.82 1.85 1.94 1.65 1.86 1.25 0.64 0.42 0.29 0.25 0.28 0.17 0.16 0.21 0.13 0.08 0.10 0.08 0.09 0.10 0.19 0.39 0.33 0.26 0.31 0.28 0.16 0.08 0.04 0.01 0.01 0.01 0.01 0.01 0.00 0.02 0.05 0.15 0.25 0.24
1.11 1.15 1.02 0.69 0.85 1.40 1.50 1.44 0.88 0.26 0.20 0.21 0.26 0.36 0.33 0.41 0.48 0.34 0.21 0.04 0.02 0.02 0.04 0.04 0.07 0.12 0.14 0.13 0.11 0.11 0.07 0.05 0.03 0.01 0.00 0.01 0.01 0.01 0.01 0.01 0.04 0.17 0.27
0.70 0.57 0.58 0.72 0.59 0.84 1.34 0.97 0.75 0.27 0.13 0.16 0.26 0.34 0.34 0.35 0.34 0.21 0.12 0.07 0.05 0.03 0.01 0.03 0.03 0.04 0.05 0.06 0.10 0.10 0.06 0.05 0.03 0.03 0.02 0.02 0.02 0.01 0.00 0.01 0.01 0.08 0.22
0.48 0.45 0.45 0.47 0.59 0.97 1.17 0.85 0.63 0.37 0.15 0.13 0.27 0.40 0.51 0.39 0.28 0.16 0.08 0.03 0.01 0.00 0.00 0.00 0.00 0.02 0.04 0.07 0.12 0.19 0.16 0.09 0.06 0.05 0.04 0.05 0.06 0.08 0.07 0.01 0.00 0.03 0.10
0.37 0.30 0.31 0.53 0.81 0.89 0.96 0.75 0.64 0.47 0.31 0.34 0.33 0.42 0.52 0.36 0.16 0.10 0.06 0.02 0.00 0.00 0.00 0.00 0.00 0.00 0.01 0.04 0.05 0.04 0.02 0.04 0.04 0.03 0.02 0.03 0.07 0.11 0.16 0.15 0.08 0.04 0.05
0.12 0.16 0.50 0.81 1.16 1.24 1.03 0.93 1.12 1.00 0.71 0.49 0.38 0.38 0.25 0.23 0.09 0.07 0.04 0.02 0.01 0.00 0.00 0.00 0.00 0.00 0.00 0.00 0.00 0.01 0.01 0.01 0.02 0.03 0.02 0.01 0.01 0.03 0.08 0.10 0.13 0.13 0.11
0.12 0.12 0.67 1.06 1.32 1.35 1.88 1.68 1.05 0.47 0.37 0.31 0.26 0.34 0.27 0.19 0.25 0.23 0.12 0.03 0.02 0.00 0.00 0.00 0.00 0.00 0.00 0.00 0.00 0.00 0.00 0.02 0.02 0.03 0.03 0.02 0.02 0.02 0.02 0.04 0.05 0.07 0.11
0.12 0.31 0.81 1.20 1.51 1.13 0.74 0.33 0.17 0.14 0.22 0.26 0.22 0.23 0.16 0.18 0.12 0.19 0.08 0.04 0.00 0.00 0.00 0.00 0.00 0.01 0.01 0.00 0.01 0.00 0.00 0.00 0.01 0.04 0.05 0.08 0.08 0.07 0.05 0.05 0.06 0.04 0.04
0.27 0.37 0.41 0.36 0.53 0.21 0.10 0.07 0.12 0.08 0.11 0.18 0.24 0.13 0.12 0.20 0.20 0.09 0.02 0.07 0.00 0.00 0.00 0.01 0.01 0.02 0.01 0.00 0.01 0.01 0.00 0.00 0.00 0.01 0.03 0.07 0.08 0.12 0.12 0.08 0.08 0.07 0.03
0.15 0.17 0.06 0.06 0.27 0.21 0.08 0.10 0.14 0.23 0.16 0.14 0.28 0.20 0.09 0.18 0.31 0.24 0.04 0.03 0.02 0.01 0.01 0.01 0.01 0.01 0.01 0.00 0.00 0.02 0.02 0.01 0.01 0.00 0.01 0.05 0.07 0.07 0.08 0.09 0.08 0.09 0.06
0.02 0.03 0.02 0.06 0.13 0.17 0.19 0.23 0.19 0.17 0.17 0.10 0.09 0.06 0.07 0.08 0.10 0.10 0.03 0.02 0.02 0.02 0.01 0.03 0.03 0.03 0.02 0.01 0.00 0.00 0.02 0.05 0.05 0.03 0.00 0.00 0.04 0.07 0.11 0.13 0.14 0.14 0.13
0.04 0.04 0.09 0.13 0.15 0.12 0.17 0.31 0.19 0.17 0.18 0.18 0.09 0.09 0.08 0.10 0.09 0.08 0.04 0.05 0.04 0.01 0.06 0.06 0.03 0.04 0.05 0.04 0.03 0.01 0.01 0.01 0.02 0.07 0.05 0.02 0.03 0.05 0.06 0.11 0.15 0.21 0.26
0.11 0.17 0.15 0.13 0.14 0.15 0.21 0.26 0.26 0.18 0.14 0.10 0.08 0.09 0.07 0.05 0.06 0.02 0.01 0.01 0.01 0.02 0.06 0.08 0.13 0.10 0.08 0.06 0.04 0.05 0.07 0.08 0.09 0.13 0.15 0.09 0.06 0.07 0.04 0.07 0.08 0.12 0.18